WBANNO,USDM_WEEK,LONGITUDE,LATITUDE,SMVWC_5_CM_MEAN,SMANOM_5_CM_MEAN,SMPERC_5_CM_30COUNTS,SMPERC_5_CM_70COUNTS,SMVWC_10_CM_MEAN,SMANOM_10_CM_MEAN,SMPERC_10_CM_30COUNTS,SMPERC_10_CM_70COUNTS,SMVWC_20_CM_MEAN,SMANOM_20_CM_MEAN,SMPERC_20_CM_30COUNTS,SMPERC_20_CM_70COUNTS,SMVWC_50_CM_MEAN,SMANOM_50_CM_MEAN,SMPERC_50_CM_30COUNTS,SMPERC_50_CM_70COUNTS,SMVWC_100_CM_MEAN,SMANOM_100_CM_MEAN,SMPERC_100_CM_30COUNTS,SMPERC_100_CM_70COUNTS,SMVWC_TOP_CM_MEAN,SMANOM_TOP_CM_MEAN,SMPERC_TOP_CM_30COUNTS,SMPERC_TOP_CM_70COUNTS,SMVWC_COLUMN_CM_MEAN,SMANOM_COLUMN_CM_MEAN,SMPERC_COLUMN_CM_30COUNTS,SMPERC_COLUMN_CM_70COUNTS
63855,20090410,-85.13,36.01,,,,,,,,,,,,,,,,,,,,,,,,,,,,
63855,20090411,-85.13,36.01,,,,,,,,,,,,,,,,,,,,,,,,,,,,
63855,20090412,-85.13,36.01,,,,,,,,,,,,,,,,,,,,,,,,,,,,
63855,20090413,-85.13,36.01,,,,,,,,,,,,,,,,,,,,,,,,,,,,
63855,20090414,-85.13,36.01,,,,,,,,,,,,,,,,,,,,,,,,,,,,
63855,20090415,-85.13,36.01,,,,,,,,,,,,,,,,,,,,,,,,,,,,
63855,20090416,-85.13,36.01,0.453,0.73,0,0.918,0.433,0.75,0,0.918,0.401,0.63,0,0.918,0.39,-0.24,0.114,0,0.358,-0.67,1,0,0.443,0.77,0,0.918,0.407,0.5,0,0.88
63855,20090417,-85.13,36.01,0.455,0.74,0,1,0.434,0.77,0,1,0.403,0.66,0,1,0.39,-0.22,0.024,0,0.358,-0.65,1,0,0.445,0.79,0,1,0.408,0.52,0,0.97
63855,20090418,-85.13,36.01,0.448,0.67,0,1,0.431,0.74,0,1,0.402,0.65,0,1,0.39,-0.2,0,0,0.358,-0.63,1,0,0.44,0.73,0,1,0.406,0.49,0,0.946
63855,20090419,-85.13,36.01,0.442,0.6,0,0.988,0.427,0.68,0,1,0.4,0.61,0,1,0.39,-0.18,0,0,0.358,-0.61,1,0,0.434,0.67,0,1,0.403,0.44,0,0.804
63855,20090420,-85.13,36.01,0.448,0.65,0,0.988,0.43,0.72,0,1,0.401,0.63,0,1,0.39,-0.17,0,0,0.358,-0.59,1,0,0.439,0.71,0,1,0.406,0.47,0,0.804
63855,20090421,-85.13,36.01,0.455,0.69,0,0.988,0.434,0.75,0,1,0.403,0.66,0,1,0.39,-0.15,0,0,0.358,-0.57,1,0,0.444,0.75,0,1,0.408,0.5,0,0.821
63855,20090422,-85.13,36.01,0.453,0.67,0,0.988,0.433,0.74,0,1,0.403,0.66,0,1,0.391,-0.13,0,0,0.358,-0.56,1,0,0.443,0.73,0,1,0.408,0.48,0,0.821
63855,20090423,-85.13,36.01,0.451,0.64,0,0.988,0.432,0.71,0,1,0.402,0.63,0,1,0.39,-0.12,0,0,0.359,-0.54,1,0,0.441,0.7,0,1,0.407,0.46,0,0.78
63855,20090424,-85.13,36.01,0.449,0.63,0,0.988,0.431,0.69,0,1,0.401,0.61,0,1,0.39,-0.1,0,0,0.359,-0.53,1,0,0.44,0.68,0,1,0.406,0.44,0,0.637
63855,20090425,-85.13,36.01,0.447,0.61,0,0.881,0.43,0.66,0,0.929,0.4,0.59,0,0.964,0.39,-0.09,0,0,0.359,-0.52,1,0,0.438,0.66,0,0.94,0.405,0.42,0,0.53
63855,20090426,-85.13,36.01,0.444,0.58,0,0.75,0.427,0.63,0,0.786,0.4,0.58,0,0.821,0.391,-0.07,0,0,0.359,-0.51,0.994,0,0.436,0.63,0,0.798,0.404,0.41,0,0.53
63855,20090427,-85.13,36.01,0.428,0.46,0,0.607,0.418,0.53,0,0.643,0.396,0.52,0,0.679,0.39,-0.07,0,0,0.359,-0.5,0.988,0,0.423,0.52,0,0.655,0.398,0.33,0,0.387
63855,20090428,-85.13,36.01,0.406,0.29,0,0.464,0.406,0.41,0,0.5,0.39,0.43,0,0.536,0.39,-0.08,0,0,0.359,-0.49,0.958,0,0.406,0.37,0,0.512,0.39,0.22,0,0.244
63855,20090429,-85.13,36.01,0.387,0.15,0.006,0.321,0.392,0.29,0,0.357,0.384,0.34,0,0.393,0.39,-0.09,0,0,0.359,-0.49,0.935,0,0.389,0.24,0,0.369,0.382,0.12,0,0.101
63855,20090430,-85.13,36.01,0.37,0.04,0.006,0.179,0.381,0.19,0,0.214,0.378,0.26,0,0.25,0.389,-0.09,0,0,0.359,-0.49,0.881,0,0.376,0.13,0,0.226,0.376,0.05,0,0
63855,20090501,-85.13,36.01,0.356,-0.06,0.006,0.048,0.371,0.11,0,0.083,0.373,0.2,0,0.107,0.389,-0.1,0,0,0.359,-0.48,0.768,0,0.363,0.05,0,0.095,0.37,-0.01,0,0
63855,20090502,-85.13,36.01,0.358,-0.03,0.006,0.125,0.372,0.13,0,0.125,0.373,0.21,0,0.095,0.39,-0.09,0,0,0.359,-0.46,0.625,0,0.365,0.08,0,0.143,0.371,0.01,0,0.089
63855,20090503,-85.13,36.01,0.369,0.07,0.006,0.268,0.378,0.19,0,0.268,0.376,0.27,0,0.238,0.391,-0.07,0,0,0.359,-0.44,0.488,0,0.373,0.17,0,0.286,0.375,0.08,0,0.232
63855,20090504,-85.13,36.01,0.386,0.22,0.006,0.411,0.387,0.28,0,0.411,0.38,0.34,0,0.381,0.392,-0.04,0,0,0.359,-0.42,0.351,0,0.386,0.29,0,0.429,0.381,0.18,0,0.375
63855,20090505,-85.13,36.01,0.407,0.4,0.006,0.554,0.398,0.39,0,0.554,0.385,0.43,0,0.524,0.394,0,0,0,0.36,-0.39,0.238,0,0.403,0.44,0,0.571,0.389,0.31,0,0.518
63855,20090506,-85.13,36.01,0.429,0.59,0,0.696,0.411,0.52,0,0.696,0.391,0.53,0,0.667,0.395,0.04,0,0,0.36,-0.36,0.119,0,0.42,0.61,0,0.714,0.397,0.44,0,0.661
63855,20090507,-85.13,36.01,0.454,0.81,0,0.839,0.426,0.67,0,0.839,0.398,0.64,0,0.81,0.397,0.08,0,0,0.36,-0.32,0.03,0,0.44,0.79,0,0.857,0.407,0.58,0,0.804
63855,20090508,-85.13,36.01,0.473,0.98,0,0.97,0.439,0.8,0,0.97,0.404,0.75,0,0.952,0.398,0.12,0,0,0.36,-0.28,0,0,0.456,0.95,0,0.988,0.415,0.7,0,0.946
63855,20090509,-85.13,36.01,0.482,1.08,0,1,0.442,0.86,0,1,0.407,0.8,0,1,0.399,0.14,0,0,0.361,-0.25,0,0,0.462,1.03,0,1,0.418,0.77,0,1
63855,20090510,-85.13,36.01,0.484,1.13,0,1,0.443,0.9,0,1,0.407,0.83,0,1,0.4,0.15,0,0,0.361,-0.23,0,0,0.464,1.07,0,1,0.419,0.8,0,1
63855,20090511,-85.13,36.01,0.477,1.11,0,1,0.442,0.92,0,1,0.406,0.85,0,1,0.4,0.16,0,0,0.361,-0.21,0,0,0.459,1.06,0,1,0.417,0.8,0,1
63855,20090512,-85.13,36.01,0.466,1.05,0,1,0.439,0.93,0,1,0.405,0.85,0,1,0.4,0.16,0,0,0.361,-0.19,0,0,0.452,1.03,0,1,0.414,0.78,0,1
63855,20090513,-85.13,36.01,0.455,1,0,1,0.434,0.92,0,1,0.402,0.84,0,1,0.4,0.17,0,0,0.361,-0.17,0,0,0.445,1,0,1,0.41,0.76,0,1
63855,20090514,-85.13,36.01,0.44,0.91,0,1,0.429,0.9,0,1,0.399,0.81,0,1,0.4,0.17,0,0,0.361,-0.15,0,0,0.435,0.94,0,1,0.406,0.72,0,1
63855,20090515,-85.13,36.01,0.431,0.86,0,1,0.423,0.87,0,1,0.395,0.78,0,1,0.399,0.18,0,0,0.361,-0.13,0,0.006,0.427,0.9,0,1,0.402,0.69,0,1
63855,20090516,-85.13,36.01,0.418,0.78,0,1,0.419,0.86,0,1,0.393,0.76,0,1,0.399,0.18,0,0,0.361,-0.12,0,0.006,0.419,0.85,0,1,0.398,0.66,0,1
63855,20090517,-85.13,36.01,0.406,0.72,0,1,0.415,0.85,0,1,0.391,0.75,0,1,0.399,0.2,0,0,0.361,-0.1,0,0.006,0.411,0.81,0,1,0.394,0.64,0,1
63855,20090518,-85.13,36.01,0.401,0.69,0,1,0.411,0.84,0,1,0.389,0.73,0,1,0.399,0.2,0,0,0.361,-0.09,0,0.007,0.406,0.78,0,1,0.392,0.62,0,1
63855,20090519,-85.13,36.01,0.397,0.69,0,1,0.409,0.84,0,1,0.387,0.72,0,1,0.399,0.21,0,0,0.362,-0.07,0,0.007,0.403,0.78,0,1,0.39,0.63,0,1
63855,20090520,-85.13,36.01,0.391,0.68,0,1,0.405,0.84,0,1,0.385,0.72,0,1,0.398,0.22,0,0,0.361,-0.05,0,0.007,0.398,0.78,0,1,0.388,0.65,0,1
63855,20090521,-85.13,36.01,0.384,0.66,0,1,0.4,0.83,0,1,0.383,0.73,0,1,0.398,0.23,0,0,0.361,-0.04,0,0.007,0.392,0.77,0,1,0.385,0.65,0,1
63855,20090522,-85.13,36.01,0.374,0.61,0,0.88,0.394,0.8,0,1,0.381,0.72,0,1,0.397,0.24,0,0,0.361,-0.03,0,0,0.384,0.73,0,1,0.382,0.64,0,1
63855,20090523,-85.13,36.01,0.36,0.51,0,0.711,0.384,0.73,0,1,0.377,0.68,0,1,0.396,0.24,0,0,0.361,-0.02,0,0,0.372,0.65,0,0.951,0.376,0.59,0,1
63855,20090524,-85.13,36.01,0.343,0.4,0,0.542,0.371,0.64,0,0.979,0.372,0.62,0,1,0.395,0.24,0,0,0.361,-0.01,0,0,0.357,0.54,0,0.782,0.369,0.52,0,0.901
63855,20090525,-85.13,36.01,0.339,0.37,0,0.503,0.365,0.6,0,0.982,0.37,0.59,0,1,0.395,0.25,0,0.037,0.362,-0.01,0,0,0.352,0.51,0,0.712,0.366,0.49,0,0.865
63855,20090526,-85.13,36.01,0.333,0.34,0,0.518,0.36,0.57,0,0.982,0.367,0.55,0,1,0.395,0.26,0,0.161,0.362,-0.01,0,0,0.346,0.47,0,0.72,0.363,0.46,0,0.869
63855,20090527,-85.13,36.01,0.326,0.29,0,0.423,0.353,0.52,0,0.982,0.364,0.52,0,1,0.394,0.28,0,0.304,0.362,0,0,0,0.34,0.42,0,0.72,0.36,0.42,0,0.869
63855,20090528,-85.13,36.01,0.327,0.31,0,0.411,0.351,0.52,0,0.982,0.363,0.5,0,1,0.394,0.3,0,0.446,0.362,0,0,0,0.339,0.42,0,0.72,0.359,0.42,0,0.869
63855,20090529,-85.13,36.01,0.328,0.33,0,0.512,0.35,0.52,0,0.982,0.362,0.49,0,1,0.394,0.34,0,0.589,0.362,0.01,0,0,0.339,0.43,0,0.72,0.359,0.42,0,0.869
63855,20090530,-85.13,36.01,0.332,0.38,0,0.655,0.351,0.55,0,0.982,0.361,0.49,0,1,0.395,0.37,0,0.732,0.362,0.01,0,0,0.342,0.47,0,0.762,0.36,0.44,0,0.869
63855,20090531,-85.13,36.01,0.335,0.41,0,0.696,0.353,0.58,0,1,0.361,0.5,0,1,0.395,0.4,0,0.875,0.362,0.02,0,0,0.344,0.5,0,0.905,0.361,0.45,0,0.952
63855,20090601,-85.13,36.01,0.331,0.38,0,0.649,0.352,0.58,0,0.988,0.36,0.5,0,1,0.395,0.44,0,0.982,0.362,0.03,0,0,0.342,0.48,0,0.869,0.36,0.44,0,0.893
63855,20090602,-85.13,36.01,0.322,0.29,0,0.506,0.346,0.52,0,0.851,0.358,0.46,0,0.899,0.395,0.47,0,1,0.362,0.04,0,0,0.334,0.41,0,0.726,0.357,0.39,0,0.75
63855,20090603,-85.13,36.01,0.313,0.21,0,0.464,0.34,0.47,0,0.726,0.354,0.42,0,0.756,0.395,0.49,0,1,0.362,0.05,0,0,0.327,0.34,0,0.595,0.353,0.34,0,0.619
63855,20090604,-85.13,36.01,0.305,0.16,0,0.333,0.336,0.44,0,0.726,0.351,0.37,0,0.613,0.395,0.52,0,1,0.362,0.06,0,0,0.321,0.29,0,0.524,0.35,0.3,0,0.512
63855,20090605,-85.13,36.01,0.309,0.22,0,0.292,0.339,0.49,0,0.726,0.352,0.4,0,0.56,0.396,0.56,0,1,0.362,0.07,0,0.012,0.324,0.34,0,0.518,0.352,0.32,0,0.47
63855,20090606,-85.13,36.01,0.312,0.28,0,0.292,0.342,0.53,0,0.726,0.354,0.43,0,0.56,0.396,0.6,0,1,0.362,0.08,0,0.06,0.327,0.38,0,0.518,0.353,0.34,0,0.47
63855,20090607,-85.13,36.01,0.315,0.33,0,0.393,0.345,0.57,0,0.726,0.355,0.46,0,0.56,0.397,0.63,0,1,0.363,0.09,0,0.125,0.33,0.43,0,0.518,0.355,0.37,0,0.47
63855,20090608,-85.13,36.01,0.318,0.38,0,0.536,0.347,0.6,0,0.738,0.356,0.48,0,0.56,0.397,0.66,0,1,0.363,0.09,0,0.149,0.332,0.47,0,0.649,0.356,0.39,0,0.577
63855,20090609,-85.13,36.01,0.321,0.43,0,0.548,0.35,0.64,0,0.875,0.357,0.51,0,0.661,0.397,0.69,0,1,0.363,0.1,0,0.179,0.335,0.51,0,0.696,0.358,0.42,0,0.69
63855,20090610,-85.13,36.01,0.323,0.47,0,0.542,0.351,0.66,0,0.899,0.358,0.54,0,0.804,0.398,0.71,0,1,0.363,0.1,0,0.208,0.337,0.54,0,0.685,0.359,0.44,0,0.685
63855,20090611,-85.13,36.01,0.318,0.42,0,0.542,0.348,0.62,0,0.756,0.359,0.55,0,0.875,0.398,0.73,0,1,0.363,0.11,0,0.25,0.333,0.5,0,0.613,0.357,0.42,0,0.649
63855,20090612,-85.13,36.01,0.315,0.39,0,0.548,0.346,0.59,0,0.726,0.357,0.52,0,0.887,0.398,0.74,0,1,0.363,0.11,0,0.327,0.33,0.47,0,0.589,0.356,0.41,0,0.661
63855,20090613,-85.13,36.01,0.316,0.38,0,0.548,0.347,0.58,0,0.726,0.358,0.53,0,0.887,0.398,0.77,0,1,0.363,0.11,0,0.423,0.331,0.46,0,0.589,0.356,0.42,0,0.661
63855,20090614,-85.13,36.01,0.316,0.37,0,0.548,0.347,0.57,0,0.726,0.358,0.53,0,0.887,0.399,0.79,0,1,0.364,0.12,0,0.5,0.332,0.45,0,0.589,0.357,0.43,0,0.661
63855,20090615,-85.13,36.01,0.318,0.39,0,0.548,0.349,0.57,0,0.726,0.359,0.54,0,0.887,0.4,0.8,0,1,0.364,0.12,0,0.619,0.333,0.46,0,0.589,0.358,0.46,0,0.661
63855,20090616,-85.13,36.01,0.321,0.41,0,0.667,0.351,0.59,0,0.726,0.36,0.56,0,0.887,0.4,0.81,0,1,0.364,0.12,0,0.726,0.336,0.48,0,0.685,0.359,0.49,0,0.69
63855,20090617,-85.13,36.01,0.325,0.45,0,0.702,0.353,0.61,0,0.827,0.361,0.59,0,0.887,0.4,0.82,0,1,0.364,0.13,0,0.827,0.339,0.51,0,0.821,0.361,0.52,0,0.827
63855,20090618,-85.13,36.01,0.329,0.49,0,0.702,0.356,0.64,0,0.97,0.363,0.61,0,0.958,0.401,0.82,0,1,0.364,0.13,0,0.929,0.343,0.55,0,0.833,0.363,0.56,0,0.97
63855,20090619,-85.13,36.01,0.318,0.39,0,0.595,0.349,0.57,0,0.893,0.361,0.6,0,1,0.401,0.81,0,1,0.364,0.13,0,0.982,0.334,0.47,0,0.72,0.359,0.53,0,0.994
63855,20090620,-85.13,36.01,0.302,0.26,0,0.452,0.336,0.45,0,0.75,0.355,0.52,0,1,0.4,0.78,0,1,0.364,0.13,0,0.982,0.319,0.34,0,0.577,0.351,0.45,0,0.881
63855,20090621,-85.13,36.01,0.287,0.13,0,0.31,0.324,0.34,0,0.607,0.35,0.45,0,0.899,0.399,0.75,0,1,0.364,0.13,0,0.952,0.306,0.23,0,0.435,0.345,0.39,0,0.738
63855,20090622,-85.13,36.01,0.275,0.04,0,0.168,0.314,0.24,0,0.467,0.345,0.38,0,0.76,0.399,0.73,0,1,0.364,0.13,0,0.886,0.295,0.14,0,0.293,0.339,0.33,0,0.599
63855,20090623,-85.13,36.01,0.273,0.02,0,0.114,0.312,0.22,0,0.431,0.342,0.34,0,0.725,0.398,0.71,0,1,0.364,0.13,0,0.826,0.292,0.12,0,0.251,0.338,0.32,0,0.563
63855,20090624,-85.13,36.01,0.271,0,0,0.084,0.311,0.21,0,0.359,0.34,0.31,0,0.725,0.398,0.69,0,1,0.364,0.12,0,0.731,0.291,0.1,0,0.144,0.337,0.31,0,0.551
63855,20090625,-85.13,36.01,0.266,-0.03,0,0.084,0.307,0.17,0,0.216,0.337,0.27,0,0.641,0.398,0.67,0,1,0.364,0.12,0,0.611,0.286,0.07,0,0.132,0.334,0.29,0,0.431
63855,20090626,-85.13,36.01,0.259,-0.08,0,0.084,0.302,0.13,0,0.18,0.334,0.24,0,0.497,0.397,0.64,0,1,0.364,0.12,0,0.491,0.281,0.02,0,0.132,0.331,0.26,0,0.293
63855,20090627,-85.13,36.01,0.256,-0.1,0,0.084,0.299,0.1,0,0.18,0.331,0.2,0,0.353,0.397,0.6,0,1,0.364,0.11,0,0.353,0.278,0,0,0.132,0.329,0.24,0,0.263
63855,20090628,-85.13,36.01,0.252,-0.12,0.042,0.084,0.296,0.08,0,0.18,0.329,0.17,0,0.311,0.396,0.57,0,1,0.364,0.11,0,0.263,0.274,-0.02,0,0.132,0.328,0.23,0,0.263
63855,20090629,-85.13,36.01,0.251,-0.13,0.077,0.083,0.296,0.07,0,0.179,0.326,0.14,0,0.31,0.395,0.52,0,0.911,0.364,0.11,0,0.208,0.273,-0.03,0,0.131,0.326,0.22,0,0.262
63855,20090630,-85.13,36.01,0.24,-0.21,0.095,0.006,0.287,-0.01,0,0.071,0.322,0.08,0,0.202,0.393,0.46,0,0.768,0.364,0.1,0,0.131,0.263,-0.11,0,0.03,0.321,0.16,0,0.155
63855,20090701,-85.13,36.01,0.231,-0.28,0.196,0,0.28,-0.07,0,0.042,0.316,0.01,0,0.06,0.391,0.4,0,0.625,0.364,0.09,0,0.095,0.255,-0.18,0.048,0.006,0.316,0.11,0,0.024
63855,20090702,-85.13,36.01,0.231,-0.27,0.196,0,0.28,-0.07,0,0.042,0.313,-0.02,0,0,0.388,0.34,0,0.482,0.363,0.08,0,0.071,0.255,-0.17,0.048,0.006,0.315,0.09,0,0
63855,20090703,-85.13,36.01,0.232,-0.27,0.196,0,0.279,-0.08,0,0.042,0.311,-0.06,0,0,0.386,0.28,0,0.339,0.362,0.07,0,0.048,0.255,-0.17,0.048,0.006,0.314,0.08,0,0
63855,20090704,-85.13,36.01,0.229,-0.28,0.226,0,0.278,-0.09,0,0.042,0.308,-0.09,0,0,0.383,0.23,0,0.196,0.36,0.05,0,0.042,0.253,-0.19,0.048,0.006,0.312,0.06,0,0
63855,20090705,-85.13,36.01,0.233,-0.25,0.28,0.042,0.281,-0.07,0,0.083,0.306,-0.11,0,0,0.38,0.18,0,0.054,0.359,0.03,0,0.018,0.257,-0.16,0.06,0.048,0.312,0.06,0,0.006
63855,20090706,-85.13,36.01,0.249,-0.13,0.244,0.143,0.294,0.04,0,0.226,0.312,-0.04,0,0.083,0.38,0.16,0,0.018,0.357,0.01,0,0,0.272,-0.05,0.06,0.167,0.319,0.13,0,0.113
63855,20090707,-85.13,36.01,0.266,-0.01,0.226,0.226,0.307,0.15,0,0.369,0.319,0.03,0,0.226,0.381,0.16,0,0.018,0.357,0.01,0,0,0.286,0.07,0.06,0.31,0.326,0.21,0,0.256
63855,20090708,-85.13,36.01,0.278,0.07,0.125,0.226,0.317,0.22,0,0.387,0.326,0.1,0,0.333,0.382,0.17,0,0.018,0.357,0.01,0,0,0.297,0.15,0.012,0.333,0.332,0.26,0,0.321
63855,20090709,-85.13,36.01,0.281,0.09,0.125,0.226,0.319,0.24,0,0.387,0.33,0.15,0,0.369,0.383,0.18,0,0.018,0.357,0,0,0,0.3,0.17,0.012,0.333,0.334,0.29,0,0.327
63855,20090710,-85.13,36.01,0.288,0.14,0.125,0.226,0.324,0.29,0,0.387,0.335,0.19,0,0.369,0.384,0.19,0,0.018,0.357,0.01,0,0,0.306,0.22,0.012,0.333,0.338,0.33,0,0.327
63855,20090711,-85.13,36.01,0.296,0.2,0.095,0.226,0.33,0.34,0,0.387,0.339,0.24,0,0.369,0.385,0.21,0,0.018,0.358,0.01,0,0,0.313,0.28,0.012,0.333,0.342,0.37,0,0.327
63855,20090712,-85.13,36.01,0.298,0.22,0,0.185,0.332,0.36,0,0.351,0.343,0.28,0,0.369,0.387,0.23,0,0.018,0.359,0.02,0,0,0.315,0.29,0,0.298,0.344,0.39,0,0.321
63855,20090713,-85.13,36.01,0.297,0.22,0,0.22,0.331,0.36,0,0.351,0.344,0.3,0,0.429,0.387,0.24,0,0,0.359,0.03,0,0,0.314,0.3,0,0.321,0.344,0.4,0,0.351
63855,20090714,-85.13,36.01,0.297,0.23,0,0.28,0.331,0.37,0,0.351,0.345,0.3,0,0.429,0.388,0.25,0,0,0.359,0.03,0,0,0.314,0.31,0,0.321,0.344,0.4,0,0.351
63855,20090715,-85.13,36.01,0.297,0.24,0,0.304,0.33,0.38,0,0.435,0.345,0.31,0,0.464,0.388,0.26,0,0,0.359,0.03,0,0,0.314,0.32,0,0.381,0.344,0.41,0,0.345
63855,20090716,-85.13,36.01,0.305,0.31,0,0.345,0.336,0.45,0,0.577,0.347,0.34,0,0.571,0.389,0.28,0,0.036,0.36,0.04,0,0,0.32,0.39,0,0.435,0.347,0.45,0,0.399
63855,20090717,-85.13,36.01,0.316,0.41,0,0.488,0.345,0.54,0,0.72,0.353,0.41,0,0.714,0.393,0.32,0,0.179,0.36,0.06,0,0,0.33,0.49,0,0.577,0.353,0.51,0,0.542
63855,20090718,-85.13,36.01,0.326,0.51,0,0.631,0.354,0.63,0,0.863,0.358,0.46,0,0.857,0.396,0.36,0,0.321,0.361,0.07,0,0,0.34,0.58,0,0.72,0.359,0.58,0,0.685
63855,20090719,-85.13,36.01,0.337,0.61,0,0.774,0.363,0.72,0,1,0.363,0.52,0,1,0.398,0.4,0,0.464,0.362,0.09,0,0,0.35,0.68,0,0.857,0.365,0.65,0,0.827
63855,20090720,-85.13,36.01,0.334,0.61,0,0.78,0.361,0.72,0,1,0.363,0.53,0,1,0.4,0.42,0,0.607,0.363,0.1,0,0,0.347,0.68,0,0.857,0.364,0.66,0,0.833
63855,20090721,-85.13,36.01,0.332,0.61,0,0.78,0.359,0.71,0,1,0.363,0.54,0,1,0.4,0.43,0,0.75,0.363,0.12,0,0.024,0.345,0.68,0,0.857,0.363,0.67,0,0.833
63855,20090722,-85.13,36.01,0.331,0.62,0,0.893,0.358,0.72,0,1,0.363,0.55,0,1,0.4,0.45,0,0.893,0.363,0.14,0,0.125,0.345,0.69,0,0.911,0.363,0.69,0,0.917
63855,20090723,-85.13,36.01,0.327,0.61,0,0.988,0.355,0.7,0,1,0.361,0.55,0,1,0.4,0.45,0,1,0.364,0.17,0,0.256,0.341,0.67,0,1,0.361,0.7,0,1
63855,20090724,-85.13,36.01,0.32,0.57,0,0.988,0.348,0.65,0,1,0.357,0.53,0,1,0.397,0.43,0,1,0.364,0.19,0,0.393,0.334,0.63,0,1,0.357,0.69,0,1
63855,20090725,-85.13,36.01,0.314,0.54,0,0.988,0.343,0.61,0,1,0.355,0.52,0,1,0.395,0.42,0,1,0.364,0.21,0,0.524,0.328,0.6,0,1,0.354,0.67,0,1
63855,20090726,-85.13,36.01,0.309,0.52,0,0.988,0.339,0.58,0,1,0.353,0.51,0,1,0.394,0.41,0,1,0.364,0.23,0,0.667,0.324,0.58,0,1,0.352,0.67,0,1
63855,20090727,-85.13,36.01,0.316,0.59,0,0.988,0.344,0.64,0,1,0.356,0.56,0,1,0.396,0.43,0,1,0.364,0.26,0,0.81,0.33,0.65,0,1,0.355,0.71,0,1
63855,20090728,-85.13,36.01,0.319,0.63,0,0.988,0.346,0.68,0,1,0.357,0.59,0,1,0.397,0.46,0,1,0.364,0.28,0,0.929,0.333,0.69,0,1,0.357,0.74,0,1
63855,20090729,-85.13,36.01,0.333,0.76,0,0.994,0.356,0.77,0,1,0.361,0.66,0,1,0.399,0.48,0,1,0.364,0.3,0,0.97,0.344,0.81,0,1,0.363,0.81,0,1
63855,20090730,-85.13,36.01,0.355,0.95,0,1,0.371,0.93,0,1,0.368,0.77,0,1,0.402,0.51,0,1,0.364,0.31,0,0.982,0.363,0.99,0,1,0.372,0.91,0,1
63855,20090731,-85.13,36.01,0.379,1.16,0,1,0.387,1.08,0,1,0.377,0.88,0,1,0.405,0.55,0,1,0.365,0.33,0,0.988,0.383,1.17,0,1,0.382,1.02,0,1
63855,20090801,-85.13,36.01,0.4,1.34,0,1,0.403,1.24,0,1,0.385,1,0,1,0.408,0.59,0,1,0.365,0.35,0,1,0.402,1.35,0,1,0.392,1.12,0,1
63855,20090802,-85.13,36.01,0.416,1.48,0,1,0.415,1.37,0,1,0.394,1.12,0,1,0.411,0.63,0,1,0.365,0.36,0,1,0.416,1.49,0,1,0.4,1.21,0,1
63855,20090803,-85.13,36.01,0.426,1.57,0,1,0.423,1.45,0,1,0.398,1.18,0,1,0.411,0.64,0,1,0.366,0.37,0,1,0.425,1.59,0,1,0.405,1.27,0,1
63855,20090804,-85.13,36.01,0.433,1.63,0,1,0.428,1.51,0,1,0.402,1.24,0,1,0.412,0.66,0,1,0.366,0.38,0,1,0.43,1.66,0,1,0.408,1.32,0,1
63855,20090805,-85.13,36.01,0.429,1.6,0,1,0.425,1.49,0,1,0.402,1.25,0,1,0.414,0.68,0,1,0.366,0.39,0,1,0.427,1.64,0,1,0.407,1.32,0,1
63855,20090806,-85.13,36.01,0.414,1.48,0,1,0.416,1.41,0,1,0.398,1.21,0,1,0.414,0.69,0,1,0.366,0.4,0,1,0.415,1.55,0,1,0.402,1.28,0,1
63855,20090807,-85.13,36.01,0.397,1.34,0,1,0.405,1.32,0,1,0.393,1.16,0,1,0.413,0.69,0,1,0.366,0.4,0,1,0.401,1.43,0,1,0.395,1.22,0,1
63855,20090808,-85.13,36.01,0.382,1.21,0,1,0.394,1.22,0,1,0.387,1.09,0,1,0.413,0.68,0,1,0.366,0.4,0,1,0.388,1.32,0,1,0.388,1.16,0,1
63855,20090809,-85.13,36.01,0.37,1.1,0,1,0.384,1.13,0,1,0.381,1.02,0,1,0.411,0.67,0,1,0.366,0.4,0,1,0.377,1.21,0,1,0.383,1.11,0,1
63855,20090810,-85.13,36.01,0.351,0.93,0,1,0.37,1,0,1,0.374,0.94,0,1,0.41,0.64,0,1,0.366,0.41,0,1,0.361,1.06,0,1,0.374,1.02,0,1
63855,20090811,-85.13,36.01,0.34,0.83,0,1,0.361,0.91,0,1,0.369,0.88,0,1,0.407,0.61,0,1,0.366,0.41,0,1,0.35,0.96,0,1,0.369,0.97,0,1
63855,20090812,-85.13,36.01,0.332,0.77,0,1,0.356,0.86,0,1,0.366,0.84,0,1,0.405,0.58,0,1,0.366,0.42,0,1,0.344,0.9,0,1,0.365,0.93,0,1
63855,20090813,-85.13,36.01,0.325,0.71,0,1,0.35,0.81,0,1,0.363,0.8,0,1,0.403,0.55,0,1,0.365,0.42,0,1,0.337,0.83,0,1,0.361,0.9,0,1
63855,20090814,-85.13,36.01,0.316,0.63,0,1,0.343,0.75,0,1,0.36,0.76,0,1,0.401,0.53,0,1,0.365,0.43,0,1,0.329,0.76,0,1,0.357,0.86,0,1
63855,20090815,-85.13,36.01,0.307,0.56,0,0.923,0.337,0.69,0,1,0.357,0.72,0,1,0.399,0.5,0,1,0.365,0.44,0,1,0.322,0.69,0,1,0.353,0.83,0,1
63855,20090816,-85.13,36.01,0.3,0.49,0,0.78,0.33,0.63,0,0.988,0.354,0.69,0,1,0.398,0.48,0,1,0.365,0.45,0,1,0.315,0.63,0,0.976,0.349,0.8,0,1
63855,20090817,-85.13,36.01,0.292,0.42,0,0.637,0.324,0.57,0,0.863,0.351,0.65,0,1,0.397,0.47,0,1,0.365,0.46,0,1,0.308,0.56,0,0.851,0.346,0.76,0,1
63855,20090818,-85.13,36.01,0.284,0.34,0,0.494,0.318,0.5,0,0.72,0.348,0.6,0,1,0.396,0.46,0,1,0.365,0.47,0,1,0.301,0.48,0,0.708,0.342,0.72,0,1
63855,20090819,-85.13,36.01,0.273,0.25,0,0.351,0.309,0.42,0,0.577,0.344,0.55,0,1,0.395,0.45,0,1,0.364,0.47,0,1,0.291,0.39,0,0.565,0.337,0.66,0,1
63855,20090820,-85.13,36.01,0.264,0.17,0,0.208,0.302,0.35,0,0.435,0.341,0.5,0,0.994,0.394,0.44,0,1,0.364,0.48,0,1,0.283,0.31,0,0.423,0.333,0.61,0,1
63855,20090821,-85.13,36.01,0.262,0.14,0,0.107,0.301,0.34,0,0.393,0.339,0.47,0,0.976,0.393,0.43,0,1,0.363,0.47,0,1,0.281,0.29,0,0.375,0.332,0.58,0,1
63855,20090822,-85.13,36.01,0.264,0.16,0,0.149,0.302,0.35,0,0.393,0.339,0.45,0,0.976,0.393,0.42,0,1,0.363,0.47,0,1,0.283,0.3,0,0.375,0.332,0.57,0,1
63855,20090823,-85.13,36.01,0.266,0.16,0,0.155,0.304,0.37,0,0.405,0.339,0.43,0,0.976,0.392,0.41,0,1,0.362,0.45,0,0.994,0.285,0.3,0,0.357,0.333,0.56,0,1
63855,20090824,-85.13,36.01,0.267,0.17,0,0.155,0.305,0.38,0,0.524,0.339,0.42,0,0.976,0.392,0.4,0,1,0.362,0.44,0,0.958,0.286,0.3,0,0.345,0.333,0.56,0,1
63855,20090825,-85.13,36.01,0.269,0.18,0,0.155,0.306,0.4,0,0.542,0.339,0.41,0,0.929,0.391,0.39,0,1,0.362,0.42,0,0.917,0.287,0.3,0,0.345,0.333,0.55,0,0.946
63855,20090826,-85.13,36.01,0.269,0.18,0,0.155,0.306,0.4,0,0.542,0.339,0.4,0,0.786,0.391,0.39,0,1,0.362,0.4,0,0.875,0.287,0.29,0,0.345,0.333,0.53,0,0.815
63855,20090827,-85.13,36.01,0.267,0.16,0,0.155,0.304,0.38,0,0.542,0.338,0.38,0,0.649,0.391,0.38,0,1,0.362,0.39,0,0.851,0.286,0.27,0,0.345,0.332,0.51,0,0.673
63855,20090828,-85.13,36.01,0.263,0.12,0,0.113,0.3,0.34,0,0.44,0.335,0.35,0,0.524,0.39,0.38,0,1,0.361,0.37,0,0.827,0.281,0.22,0,0.25,0.33,0.46,0,0.53
63855,20090829,-85.13,36.01,0.257,0.07,0,0.006,0.294,0.27,0,0.298,0.332,0.32,0,0.381,0.39,0.37,0,1,0.361,0.36,0,0.774,0.275,0.16,0,0.107,0.327,0.41,0,0.387
63855,20090830,-85.13,36.01,0.252,0.04,0,0,0.29,0.23,0,0.155,0.329,0.29,0,0.238,0.39,0.37,0,1,0.361,0.35,0,0.708,0.271,0.12,0,0.006,0.324,0.37,0,0.244
63855,20090831,-85.13,36.01,0.248,0,0,0,0.286,0.19,0,0.018,0.327,0.26,0,0.095,0.389,0.36,0,1,0.361,0.34,0,0.631,0.267,0.08,0,0,0.322,0.34,0,0.101
63855,20090901,-85.13,36.01,0.244,-0.03,0,0,0.282,0.15,0,0,0.325,0.23,0,0,0.389,0.36,0,1,0.36,0.33,0,0.548,0.263,0.05,0,0,0.32,0.3,0,0.012
63855,20090902,-85.13,36.01,0.241,-0.06,0,0,0.279,0.11,0,0,0.322,0.21,0,0,0.388,0.35,0,0.929,0.36,0.32,0,0.446,0.26,0.02,0,0,0.318,0.27,0,0
63855,20090903,-85.13,36.01,0.238,-0.08,0,0,0.277,0.09,0,0,0.32,0.18,0,0,0.387,0.34,0,0.798,0.359,0.31,0,0.327,0.257,0,0,0,0.316,0.25,0,0
63855,20090904,-85.13,36.01,0.232,-0.14,0.012,0,0.272,0.04,0,0,0.318,0.15,0,0,0.386,0.33,0,0.673,0.358,0.29,0,0.208,0.252,-0.06,0,0,0.313,0.21,0,0
63855,20090905,-85.13,36.01,0.224,-0.21,0.149,0,0.266,-0.02,0,0,0.315,0.12,0,0,0.385,0.31,0,0.53,0.357,0.27,0,0.119,0.245,-0.12,0,0,0.309,0.16,0,0
63855,20090906,-85.13,36.01,0.215,-0.28,0.292,0,0.259,-0.09,0,0,0.311,0.07,0,0,0.384,0.3,0,0.387,0.356,0.25,0,0.048,0.237,-0.19,0.018,0,0.305,0.1,0,0
63855,20090907,-85.13,36.01,0.21,-0.32,0.298,0,0.253,-0.15,0,0,0.307,0.03,0,0,0.383,0.28,0,0.244,0.355,0.23,0,0.018,0.231,-0.24,0.018,0,0.302,0.04,0,0
63855,20090908,-85.13,36.01,0.213,-0.29,0.298,0.012,0.253,-0.14,0,0.006,0.304,0,0,0,0.382,0.26,0,0.101,0.354,0.21,0,0,0.233,-0.23,0.018,0.018,0.301,0.03,0,0
63855,20090909,-85.13,36.01,0.217,-0.25,0.298,0.012,0.255,-0.12,0,0.006,0.303,-0.02,0,0,0.381,0.24,0,0.03,0.353,0.19,0,0,0.236,-0.2,0.018,0.018,0.301,0.03,0,0
63855,20090910,-85.13,36.01,0.219,-0.22,0.298,0.012,0.256,-0.11,0,0.006,0.301,-0.03,0,0,0.38,0.23,0,0.018,0.351,0.17,0,0,0.237,-0.17,0.018,0.018,0.301,0.03,0,0
63855,20090911,-85.13,36.01,0.221,-0.2,0.286,0.012,0.256,-0.1,0,0.006,0.3,-0.05,0,0,0.378,0.22,0,0,0.35,0.15,0,0,0.239,-0.15,0.018,0.018,0.301,0.02,0,0
63855,20090912,-85.13,36.01,0.223,-0.18,0.149,0.012,0.257,-0.08,0,0.006,0.299,-0.06,0,0,0.378,0.2,0,0,0.349,0.12,0,0,0.24,-0.14,0.018,0.018,0.301,0.01,0,0
63855,20090913,-85.13,36.01,0.225,-0.16,0.006,0.012,0.258,-0.06,0,0.006,0.299,-0.07,0,0,0.377,0.19,0,0,0.348,0.1,0,0,0.241,-0.12,0,0.018,0.301,0,0,0
63855,20090914,-85.13,36.01,0.223,-0.17,0.018,0.012,0.258,-0.06,0,0.006,0.298,-0.08,0,0,0.376,0.18,0,0,0.346,0.07,0,0,0.241,-0.13,0,0.018,0.3,-0.02,0,0
63855,20090915,-85.13,36.01,0.214,-0.25,0.155,0,0.253,-0.1,0,0,0.296,-0.12,0,0,0.375,0.17,0,0,0.345,0.04,0,0,0.233,-0.19,0,0,0.296,-0.08,0,0
63855,20090916,-85.13,36.01,0.22,-0.22,0.167,0.048,0.259,-0.06,0,0.107,0.299,-0.08,0,0.089,0.374,0.16,0,0,0.343,0.01,0,0,0.239,-0.15,0,0.083,0.299,-0.05,0,0.048
63855,20090917,-85.13,36.01,0.235,-0.11,0.167,0.19,0.271,0.04,0,0.25,0.304,-0.01,0,0.22,0.373,0.15,0,0,0.342,-0.01,0,0,0.253,-0.05,0,0.226,0.305,0.02,0,0.19